Wind_Speed
9 12 15 18 18 18 17 17 16 15 14 11 12 14 13 12 13 10 10 11 9 12 11 11 12 12 12 15 17 16 15 13 12 14 14 13 12 16 13 17 14 13 13
8 11 13 17 19 17 15 15 15 14 12 12 13 13 13 13 13 12 12 11 11 12 14 14 15 16 15 16 18 19 18 14 13 14 12 13 12 11 9 12 14 14 12
7 8 11 15 15 15 15 15 15 14 12 11 11 12 12 12 12 12 12 14 15 15 15 16 17 19 18 18 18 20 20 19 17 16 12 13 15 15 14 13 16 14 13
10 9 11 13 15 15 15 14 12 12 12 12 13 14 14 14 15 15 15 16 17 18 19 19 19 19 18 21 24 23 23 23 20 20 19 17 19 18 19 19 19 17 16
12 11 13 13 14 13 12 12 14 14 14 15 16 16 18 19 19 20 21 22 22 23 23 23 22 22 22 23 23 23 25 26 24 22 23 24 24 20 16 15 16 17 17
14 12 15 16 15 12 10 7 6 5 5 10 14 16 18 19 20 20 21 22 23 22 22 24 26 26 26 26 25 24 26 25 25 27 25 25 24 22 21 17 18 15 16
17 17 16 16 13 11 11 11 9 9 10 10 12 14 14 17 22 23 24 25 24 23 22 21 21 26 27 28 27 27 28 28 27 27 27 24 23 20 22 23 21 23 22
19 19 18 18 16 17 17 15 14 17 18 19 19 21 22 21 21 22 24 28 28 27 27 26 26 25 26 30 32 33 31 31 29 29 27 26 26 26 25 24 25 27 27
20 19 19 21 19 18 16 18 21 21 22 23 24 24 24 24 28 29 30 31 32 32 33 33 33 33 30 30 34 34 34 33 31 31 30 29 30 30 29 29 29 27 28
21 18 19 20 20 21 21 21 20 20 22 24 26 28 28 29 32 32 34 36 38 37 37 37 36 36 37 36 37 37 38 33 32 33 32 31 32 31 31 31 29 29 30
24 23 24 22 23 23 23 22 22 23 25 27 28 28 30 32 35 37 38 36 36 35 35 33 34 35 36 37 37 38 39 36 36 36 36 37 36 35 33 34 36 34 33
30 31 29 27 27 27 22 23 23 26 27 27 27 29 32 33 34 33 33 34 34 33 32 31 30 32 34 36 37 38 38 38 39 37 37 36 37 36 36 35 36 34 34
38 33 32 33 30 26 23 22 21 27 28 27 28 30 30 31 32 32 33 32 32 32 32 32 32 32 33 34 36 37 39 38 38 39 38 37 36 36 36 36 36 34 34
43 36 30 29 27 23 22 26 26 26 27 28 28 26 28 29 30 32 34 35 35 35 34 33 33 34 34 35 37 37 36 38 40 39 38 37 35 33 34 34 35 36 37
45 41 31 31 25 23 25 28 27 26 27 25 25 24 23 25 28 31 33 35 37 37 37 36 37 36 36 35 37 38 39 38 37 39 39 39 38 37 38 36 36 37 38
46 32 30 27 23 26 26 27 26 25 22 22 22 20 19 18 18 25 28 25 24 23 22 26 26 25 26 29 31 33 39 34 38 38 38 39 40 40 39 38 38 37 38
49 18 24 25 25 25 26 26 25 21 19 18 17 15 12 14 20 25 20 18 20 17 14 11 11 12 14 18 20 22 25 28 34 36 36 36 35 38 38 37 35 35 34
62 25 29 27 25 24 24 24 20 17 16 15 11 9 10 15 16 18 19 20 21 12 12 11 11 12 14 14 16 22 24 20 26 24 27 29 33 34 32 34 34 34 35
22 29 27 27 24 23 22 20 16 13 12 9 5 6 9 9 11 13 17 16 17 21 18 17 10 10 10 11 10 11 15 24 21 23 22 24 25 26 28 28 29 29 32
24 28 27 24 23 19 18 14 13 9 8 8 4 5 6 6 9 12 13 13 14 14 14 15 14 16 12 8 9 10 11 17 18 19 18 19 22 24 27 28 30 26 30
27 27 26 22 19 16 14 12 9 8 7 6 4 4 4 5 7 10 12 12 12 11 12 14 14 10 11 12 11 10 9 6 9 14 11 17 23 27 27 26 22 24 26
24 23 23 18 15 14 13 11 8 9 5 5 3 4 4 4 5 8 9 10 10 12 12 12 11 12 12 13 10 10 9 8 9 10 8 5 4 5 4 2 4 4 1
25 22 19 17 14 12 9 7 6 6 4 4 2 2 4 4 4 5 6 8 8 10 11 11 11 11 11 10 10 10 10 7 4 4 5 6 5 2 3 2 2 4 4
20 21 19 14 13 12 11 8 6 7 6 3 2 2 3 4 4 3 4 4 5 7 8 9 9 9 9 8 7 7 6 6 5 4 4 5 5 4 3 3 4 7 8
21 20 17 16 15 13 11 8 7 6 5 4 3 2 2 4 6 7 7 7 8 9 10 11 13 15 14 11 9 8 6 5 5 5 6 7 6 6 6 6 6 6 7
25 19 20 21 19 14 13 9 6 4 4 3 3 3 4 5 5 6 6 8 9 10 10 11 14 15 15 17 15 12 12 11 11 9 8 7 7 8 8 9 10 10 11
Wind_Direction
246 231 219 216 214 214 212 213 219 226 220 219 231 231 231 227 230 244 253 251 239 246 246 248 263 265 247 240 247 251 259 256 259 261 251 256 249 247 254 264 251 258 260
244 233 214 210 210 212 207 208 218 220 217 212 219 220 228 233 237 239 244 248 247 245 247 246 253 263 255 245 245 250 255 262 270 264 255 256 254 265 271 236 258 257 265
219 211 201 195 195 193 195 202 208 212 215 217 218 221 225 236 246 249 252 255 253 250 247 251 253 257 257 255 249 249 257 260 264 262 273 248 249 248 254 251 256 259 266
197 188 186 185 185 187 186 193 203 213 220 221 223 224 227 235 243 251 255 259 264 261 257 255 252 255 253 255 255 252 253 258 257 259 253 252 254 261 257 259 260 257 261
219 208 192 190 181 186 192 205 220 228 231 239 248 253 254 255 257 261 265 268 268 267 266 264 260 255 254 253 255 252 254 257 261 258 257 250 247 260 254 246 252 253 252
210 197 195 193 184 183 180 174 176 186 218 239 244 249 254 256 255 254 256 261 267 268 265 263 259 257 256 254 254 251 250 252 255 257 253 256 257 252 255 254 264 251 258
199 196 191 188 189 194 211 224 234 240 245 265 268 268 266 263 260 255 258 262 265 267 266 262 263 257 254 251 255 255 252 253 252 253 250 252 256 257 249 248 250 251 247
194 194 195 202 210 221 235 245 254 259 262 265 267 265 264 264 264 270 269 269 269 266 267 268 266 262 259 254 252 253 251 252 252 253 254 252 256 252 251 251 248 248 250
199 202 211 221 225 232 247 249 255 262 266 273 275 276 272 270 270 276 274 272 271 271 271 268 267 265 261 260 257 252 250 251 249 251 252 251 251 253 256 252 250 257 260
214 217 221 232 240 247 256 266 272 274 276 279 281 280 279 279 281 281 281 280 279 276 272 269 267 267 262 257 255 254 250 248 250 249 250 250 249 250 254 254 252 256 260
223 231 238 244 250 258 264 266 272 278 282 282 282 284 286 288 289 290 289 286 284 281 278 272 265 261 261 257 253 251 253 250 248 250 251 251 251 250 255 261 260 261 263
234 238 244 249 256 259 263 269 277 280 283 283 285 288 290 291 291 290 290 289 287 282 278 276 271 262 259 258 253 251 251 251 250 250 251 251 252 255 263 265 261 260 263
238 239 248 250 251 252 263 272 280 281 285 287 289 291 291 293 293 293 293 290 287 284 277 275 270 264 261 257 256 254 250 250 250 250 251 252 254 251 254 254 255 257 264
238 238 242 246 243 250 261 269 279 284 287 289 291 293 296 297 298 297 295 291 287 281 275 273 271 265 262 258 252 251 251 249 249 249 250 251 252 253 253 256 257 260 266
233 235 238 240 239 250 261 272 280 285 288 290 291 298 299 300 301 301 297 293 289 281 273 269 270 269 262 260 254 251 252 250 251 251 251 252 253 253 255 256 258 262 265
223 212 224 230 240 252 263 272 279 285 289 291 294 297 304 308 319 329 311 304 306 296 281 272 270 262 258 259 258 253 254 253 254 254 254 257 258 256 257 260 262 265 265
235 207 230 234 244 254 264 269 277 282 286 285 288 293 292 322 340 358 357 351 332 322 311 287 282 284 288 276 256 253 259 263 262 263 262 257 257 258 257 258 262 263 265
225 223 230 239 244 254 262 268 274 276 279 281 280 281 286 327 342 356 352 1 8 353 338 316 293 287 287 279 268 257 253 257 265 263 259 263 260 260 259 258 259 262 264
219 237 238 235 243 252 260 262 269 271 279 255 264 292 298 329 349 359 8 9 21 20 19 27 5 321 301 297 296 281 273 251 262 256 264 259 262 262 268 262 265 265 267
217 226 229 237 245 250 252 257 258 259 246 252 268 297 308 340 351 1 354 351 4 18 24 21 18 30 30 9 334 278 260 267 269 262 267 271 265 262 262 265 267 270 269
223 229 233 235 243 246 249 248 241 235 232 242 280 289 323 350 360 360 359 357 358 354 359 6 20 9 16 26 33 37 29 351 266 265 273 261 265 267 271 264 262 260 267
224 226 232 235 228 236 238 236 227 233 225 217 258 278 317 341 349 350 350 356 4 359 5 8 15 23 32 39 37 41 41 50 54 54 67 55 46 40 21 50 195 199 219
220 220 218 218 213 215 201 197 205 211 198 177 213 309 311 312 304 316 333 342 351 354 5 11 15 19 22 28 35 43 49 53 36 15 4 355 354 358 33 51 272 294 321
211 200 203 190 177 165 166 159 156 144 147 150 123 315 323 338 326 341 327 337 351 353 350 352 358 2 8 11 14 17 29 32 22 9 6 1 3 355 334 312 285 268 264
210 200 191 188 173 156 158 146 134 115 97 79 91 143 333 331 330 326 322 330 340 353 358 355 358 353 346 342 341 342 348 357 0 358 347 338 329 324 321 313 300 290 281
198 201 193 185 179 182 188 201 188 199 197 197 252 281 288 321 350 355 349 348 346 348 350 350 352 350 352 351 331 330 337 339 338 337 341 342 335 328 317 303 294 289 284
Height
3163 3163 3164 3167 3170 3172 3175 3178 3180 3182 3183 3184 3185 3186 3186 3187 3187 3187 3187 3187 3188 3189 3189 3188 3188 3189 3190 3190 3189 3189 3191 3192 3192 3192 3193 3193 3193 3192 3192 3191 3193 3194 3194
3161 3161 3162 3163 3167 3170 3173 3176 3178 3179 3180 3181 3182 3182 3183 3184 3184 3185 3185 3184 3184 3185 3185 3186 3186 3185 3186 3186 3187 3186 3187 3188 3188 3188 3187 3188 3189 3188 3189 3188 3189 3190 3190
3161 3161 3161 3163 3165 3168 3171 3173 3175 3177 3178 3179 3179 3180 3180 3181 3181 3181 3181 3181 3181 3181 3180 3180 3181 3181 3182 3181 3182 3183 3183 3184 3184 3184 3184 3185 3186 3186 3186 3186 3186 3186 3187
3160 3160 3162 3163 3165 3167 3168 3171 3173 3174 3175 3176 3176 3177 3177 3177 3178 3178 3178 3177 3177 3176 3176 3176 3177 3177 3178 3177 3177 3177 3178 3179 3179 3180 3180 3180 3181 3181 3181 3182 3182 3183 3183
3159 3160 3161 3164 3165 3167 3168 3169 3170 3171 3173 3173 3173 3174 3174 3174 3174 3174 3172 3172 3172 3171 3171 3171 3171 3172 3172 3172 3172 3173 3173 3173 3174 3175 3176 3176 3176 3177 3177 3177 3178 3178 3179
3156 3158 3160 3163 3164 3166 3168 3169 3169 3170 3170 3170 3170 3170 3169 3169 3169 3168 3166 3166 3166 3167 3167 3166 3166 3166 3167 3167 3167 3168 3167 3168 3168 3168 3169 3171 3172 3172 3172 3172 3172 3172 3174
3154 3157 3159 3161 3163 3165 3166 3167 3169 3169 3169 3169 3168 3167 3166 3166 3164 3163 3162 3160 3161 3161 3161 3160 3159 3159 3160 3160 3161 3162 3162 3162 3162 3163 3163 3165 3166 3167 3167 3166 3167 3168 3168
3152 3155 3157 3159 3162 3164 3164 3164 3166 3166 3167 3166 3165 3164 3162 3161 3160 3158 3157 3155 3154 3154 3154 3154 3153 3153 3152 3152 3153 3153 3154 3155 3156 3156 3156 3158 3159 3160 3160 3161 3161 3160 3161
3150 3153 3156 3157 3159 3160 3160 3160 3160 3160 3160 3160 3158 3158 3156 3156 3154 3151 3150 3148 3146 3145 3145 3144 3144 3143 3145 3144 3142 3143 3145 3147 3148 3148 3149 3150 3151 3152 3154 3154 3154 3155 3155
3149 3151 3152 3154 3156 3157 3158 3157 3154 3154 3153 3152 3151 3150 3148 3147 3145 3143 3142 3139 3136 3134 3134 3133 3133 3132 3132 3133 3132 3133 3134 3138 3139 3140 3141 3143 3144 3144 3144 3145 3146 3147 3147
3146 3148 3148 3149 3150 3152 3151 3151 3150 3148 3146 3145 3143 3141 3140 3138 3135 3132 3129 3127 3124 3121 3119 3120 3121 3120 3120 3120 3122 3123 3125 3129 3129 3130 3132 3133 3134 3135 3137 3138 3138 3138 3138
3142 3142 3143 3144 3146 3147 3146 3145 3144 3142 3141 3138 3136 3135 3132 3129 3126 3123 3119 3116 3113 3111 3110 3109 3109 3108 3109 3110 3111 3114 3115 3117 3119 3121 3123 3124 3125 3126 3128 3129 3129 3129 3129
3133 3135 3136 3138 3139 3141 3142 3140 3136 3135 3134 3131 3128 3127 3124 3120 3117 3114 3110 3107 3104 3101 3099 3098 3098 3098 3098 3099 3101 3103 3105 3106 3108 3110 3113 3115 3117 3117 3117 3118 3119 3120 3120
3123 3126 3129 3132 3134 3136 3135 3134 3130 3127 3124 3124 3121 3118 3116 3113 3109 3105 3100 3096 3093 3090 3088 3087 3087 3087 3087 3088 3090 3092 3095 3096 3098 3100 3103 3105 3106 3108 3109 3110 3110 3111 3110
3110 3117 3122 3126 3127 3130 3130 3129 3124 3120 3119 3115 3114 3111 3110 3108 3104 3098 3092 3087 3082 3078 3076 3075 3075 3075 3076 3077 3079 3081 3083 3086 3088 3090 3092 3095 3097 3098 3099 3101 3101 3101 3102
3100 3086 3114 3119 3121 3123 3124 3123 3118 3114 3110 3109 3106 3105 3103 3102 3097 3092 3084 3078 3073 3068 3066 3065 3064 3065 3066 3067 3069 3071 3073 3076 3078 3079 3081 3084 3086 3088 3089 3091 3092 3092 3092
3078 3083 3108 3113 3116 3118 3118 3118 3112 3107 3103 3103 3101 3099 3098 3097 3093 3087 3081 3075 3069 3065 3062 3061 3061 3061 3061 3062 3063 3065 3067 3068 3069 3070 3072 3074 3075 3076 3079 3081 3082 3082 3083
3083 3099 3104 3106 3110 3112 3112 3112 3105 3101 3097 3098 3093 3092 3093 3093 3090 3085 3081 3075 3069 3065 3063 3060 3059 3059 3058 3058 3058 3059 3061 3061 3062 3063 3064 3065 3066 3067 3069 3070 3072 3073 3073
3091 3099 3099 3101 3104 3105 3104 3103 3099 3094 3091 3094 3088 3087 3089 3089 3088 3085 3081 3076 3070 3067 3064 3060 3058 3057 3055 3054 3053 3053 3054 3055 3056 3058 3058 3058 3059 3060 3061 3062 3063 3063 3063
3085 3091 3093 3095 3098 3097 3097 3094 3092 3087 3088 3091 3086 3084 3086 3086 3086 3084 3080 3077 3073 3070 3067 3063 3061 3057 3054 3052 3050 3050 3051 3051 3051 3051 3053 3053 3054 3054 3055 3055 3056 3055 3055
3079 3083 3086 3088 3088 3087 3087 3089 3084 3084 3085 3085 3083 3083 3083 3083 3084 3082 3079 3077 3073 3071 3069 3066 3063 3060 3057 3054 3052 3050 3048 3047 3046 3048 3047 3048 3048 3048 3048 3048 3048 3049 3048
3072 3076 3079 3079 3078 3079 3080 3082 3080 3081 3080 3082 3082 3081 3081 3081 3081 3080 3078 3076 3073 3072 3070 3067 3065 3063 3060 3056 3054 3052 3051 3050 3050 3049 3048 3047 3046 3046 3045 3044 3045 3046 3045
3066 3068 3069 3071 3073 3074 3076 3077 3076 3077 3078 3077 3079 3079 3080 3079 3079 3078 3077 3075 3073 3072 3071 3069 3066 3064 3062 3059 3057 3055 3053 3052 3052 3051 3050 3049 3048 3047 3047 3046 3046 3046 3046
3058 3061 3063 3065 3067 3071 3072 3074 3071 3075 3074 3076 3076 3077 3077 3077 3076 3076 3075 3073 3072 3071 3070 3069 3067 3065 3063 3061 3059 3058 3056 3054 3053 3052 3051 3049 3048 3047 3046 3046 3045 3045 3045
3054 3056 3057 3062 3065 3069 3072 3070 3071 3072 3070 3074 3075 3076 3076 3076 3077 3077 3075 3073 3072 3072 3071 3069 3069 3067 3065 3063 3061 3059 3056 3055 3053 3052 3051 3050 3049 3047 3046 3046 3045 3044 3044
3050 3053 3057 3062 3065 3065 3070 3071 3067 3068 3070 3073 3074 3074 3074 3075 3076 3076 3074 3073 3072 3072 3072 3070 3068 3066 3064 3063 3061 3059 3057 3055 3053 3052 3050 3048 3047 3046 3045 3044 3043 3042 3041